Amsterdam, MO

9:10 PM CST on March 02, 2015 (GMT -0600)
KMOAMSTE2 | Change Station
CLOSE
Current Station
Personal Weather Station
Location: Amsterdam, MO
Elevation: 906 ft
Nearby Weather Stations

Elev 906 ft 38.36 °N, 94.61 °W | Updated 5 seconds ago

Overcast
Overcast
34.5 °F
Feels Like 34 °F
N
0.0
Wind Variable Wind from North
Gusts 0.0 mph

Today
High -- | Low -- °F
--% Chance of Precip.
Yesterday
High -- | Low -- °F
Precip. -- in
6:49 AM 6:12 PM
Waxing Gibbous, 94% visible
Pressure 30.12 in
Visibility 10.0 miles
Clouds Overcast 2400 ft
Windchill 34 °F
Dew Point 13 °F
Humidity 41%
Rainfall 0.04 in
Snow Depth Not available.
UV 0 out of 12
Pollen .50 out of 12
Air Quality Not available.
Flu Activity Not available.
METAR KOJC 030253Z 14006KT 10SM OVC024 01/M06 A3009 RMK AO2 SLP199 T00061061 58029

More Conditions Fewer Conditions

Pressure 30.12 in
Visibility 10.0 miles
Clouds Overcast 2400 ft
Windchill 34 °F
Dew Point 13 °F
Humidity 41%
Rainfall 0.04 in
Snow Depth Not available.
UV 0 out of 12
Pollen .50 out of 12
Air Quality Not available.
Flu Activity Not available.
METAR KOJC 030253Z 14006KT 10SM OVC024 01/M06 A3009 RMK AO2 SLP199 T00061061 58029

More Conditions Fewer Conditions

10-Day Weather Forecast

Almanac

Astronomy

Mar. 02, 2015 Rise Set
Actual Time
Civil Twilight
Nautical Twilight
Astronomical Twilight
Moon
Length of Visible Light
Length of Day
Tomorrow will be .
, % of the Moon is Illuminated

Today's Extremes

State Highs State Lows

Community

WunderPhotos

Upload Photos

1,802,057 photos uploaded!

WunderBlogs® & News

Nearby

Air Quality

  Air Quality AQ Index Pollutant
Not available.

Snow Depth

Station Depth Elevation

Earthquake Activity

City Distance Mag. Time & Date
Minimum magnitude displayed is 2.5.

Coastal Water Temperatures

Place Temperature

Nearby Weather Stations